Weather History for Bentonville, AR

Change the Weather History Date:

Friday, March 23, 2012

  Actual Average Record
Temperature  
Mean Temperature 50 °F -  
Max Temperature 57 °F 61 °F 79 °F (1988)
Min Temperature 44 °F 36 °F 18 °F (1952)
Degree Days  
Heating Degree Days 14    
Moisture  
Dew Point 44 °F    
Average Humidity 85    
Maximum Humidity 93    
Minimum Humidity 67    
Precipitation  
Precipitation 0.05 in - - ()
Sea Level Pressure  
Sea Level Pressure 29.91 in    
Wind  
Wind Speed 6 mph (WSW)    
Max Wind Speed 15 mph    
Max Gust Speed 17 mph    
Visibility 7 miles    
Events      
Averages and records for this station are not official NWS values.
T = Trace of Precipitation, MM = Missing Value Source: NWS Daily Summary

Daily Weather History Graph

Daily Weather History Graph

Search for Another Location

Airport:

Trip Planner

Search our weather history database for the weather conditions in past years. The results will help you decide how hot, cold, wet, or windy it might be!

Date:

Astronomy

Mar. 23, 2012 Rise Set
Actual Time 7:15 AM CDT 7:31 PM CDT
Civil Twilight 6:49 AM CDT 7:57 PM CDT
Nautical Twilight 6:19 AM CDT 8:27 PM CDT
Astronomical Twilight 5:48 AM CDT 8:58 PM CDT
Moon 7:27 AM CDT (3/23) 8:50 PM CDT (3/23)
Length of Visible Light 13h 07m
Length of Day
12h 16m
New Moon, 1% of the Moon is Illuminated
Mar 23
New Moon
Mar 30
First Quarter
Apr 6
Full
Apr 13
Last Quarter
Apr 21
New

Hourly Weather History & Observations

Time (CDT) Temp. Windchill Dew Point Humidity Pressure Visibility Wind Dir Wind Speed Gust Speed Precip Events Conditions
12:15 AM 48.2 °F - 42.8 °F 82% 29.89 in 10.0 mi SSW 5.8 mph - N/A   Overcast
12:35 AM 46.4 °F 45.2 °F 42.8 °F 87% 29.88 in 10.0 mi SW 3.5 mph - N/A   Mostly Cloudy
12:55 AM 46.4 °F - 42.8 °F 87% 29.88 in 10.0 mi Calm Calm - N/A   Partly Cloudy
1:15 AM 46.4 °F - 42.8 °F 87% 29.88 in 10.0 mi Calm Calm - N/A   Clear
1:35 AM 44.6 °F - 42.8 °F 93% 29.88 in 10.0 mi Calm Calm - N/A   Clear
1:55 AM 44.6 °F - 42.8 °F 93% 29.88 in 7.0 mi Calm Calm - N/A   Clear
2:15 AM 44.6 °F 42.2 °F 42.8 °F 93% 29.88 in 7.0 mi SW 4.6 mph - N/A   Clear
2:35 AM 44.6 °F 42.2 °F 42.8 °F 93% 29.89 in 8.0 mi WSW 4.6 mph - N/A   Clear
2:55 AM 44.6 °F 41.4 °F 42.8 °F 93% 29.89 in 8.0 mi SW 5.8 mph - N/A   Partly Cloudy
3:15 AM 44.6 °F 42.2 °F 42.8 °F 93% 29.88 in 7.0 mi SW 4.6 mph - N/A   Clear
3:35 AM 44.6 °F 41.4 °F 41.0 °F 87% 29.88 in 7.0 mi SW 5.8 mph - N/A   Scattered Clouds
3:55 AM 44.6 °F 40.7 °F 42.8 °F 93% 29.88 in 1.0 mi SW 6.9 mph - N/A   Overcast
4:15 AM 44.6 °F 40.7 °F 42.8 °F 93% 29.87 in 0.5 mi SW 6.9 mph - N/A   Overcast
4:55 AM 44.6 °F 40.2 °F 42.8 °F 93% 29.87 in 0.5 mi SW 8.1 mph - N/A   Overcast
5:15 AM 44.6 °F 41.4 °F 42.8 °F 93% 29.88 in 0.8 mi SW 5.8 mph - N/A   Overcast
5:35 AM 44.6 °F 41.4 °F 42.8 °F 93% 29.88 in 1.0 mi SW 5.8 mph - N/A   Overcast
5:55 AM 44.6 °F 39.7 °F 42.8 °F 93% 29.88 in 1.5 mi SSW 9.2 mph - N/A   Overcast
6:15 AM 44.6 °F 40.7 °F 42.8 °F 93% 29.88 in 3.0 mi SW 6.9 mph - N/A   Overcast
6:35 AM 44.6 °F 40.2 °F 42.8 °F 93% 29.88 in 3.0 mi SW 8.1 mph - N/A   Overcast
6:55 AM 44.6 °F 40.2 °F 42.8 °F 93% 29.87 in 3.0 mi SSW 8.1 mph - N/A   Overcast
7:15 AM 44.6 °F 39.7 °F 42.8 °F 93% 29.88 in 3.0 mi SW 9.2 mph - N/A   Overcast
7:35 AM 44.6 °F 39.7 °F 42.8 °F 93% 29.89 in 1.2 mi SW 9.2 mph - N/A   Overcast
7:55 AM 44.6 °F 41.4 °F 42.8 °F 93% 29.90 in 1.2 mi WSW 5.8 mph - N/A   Overcast
8:15 AM 44.6 °F 42.2 °F 42.8 °F 93% 29.90 in 2.0 mi SW 4.6 mph - N/A   Overcast
8:35 AM 44.6 °F 40.2 °F 42.8 °F 93% 29.91 in 2.5 mi SW 8.1 mph - N/A   Overcast
8:55 AM 46.4 °F 41.9 °F 42.8 °F 87% 29.92 in 3.0 mi WSW 9.2 mph - N/A   Overcast
9:15 AM 46.4 °F 42.9 °F 44.6 °F 93% 29.92 in 2.5 mi WSW 6.9 mph - N/A   Overcast
9:35 AM 46.4 °F 41.9 °F 44.6 °F 93% 29.92 in 3.0 mi SW 9.2 mph - N/A   Overcast
9:55 AM 46.4 °F 41.9 °F 44.6 °F 93% 29.92 in 3.0 mi SW 9.2 mph - N/A   Overcast
10:15 AM 46.4 °F 42.4 °F 44.6 °F 93% 29.93 in 6.0 mi WSW 8.1 mph - N/A   Overcast
10:35 AM 48.2 °F - 44.6 °F 87% 29.93 in 9.0 mi WSW 9.2 mph - N/A   Overcast
10:55 AM 48.2 °F - 44.6 °F 87% 29.92 in 9.0 mi SW 9.2 mph - N/A   Overcast
11:15 AM 50.0 °F - 44.6 °F 82% 29.92 in 10.0 mi SW 6.9 mph - N/A   Overcast
11:35 AM 50.0 °F - 44.6 °F 82% 29.93 in 10.0 mi WSW 8.1 mph - N/A   Overcast
11:55 AM 50.0 °F - 44.6 °F 82% 29.93 in 10.0 mi WSW 8.1 mph - N/A   Overcast
12:15 PM 50.0 °F - 44.6 °F 82% 29.93 in 10.0 mi WSW 10.4 mph - N/A   Overcast
12:35 PM 50.0 °F - 44.6 °F 82% 29.93 in 10.0 mi West 9.2 mph - N/A   Overcast
12:55 PM 51.8 °F - 46.4 °F 82% 29.93 in 10.0 mi West 13.8 mph 17.3 mph N/A   Overcast
1:15 PM 51.8 °F - 46.4 °F 82% 29.93 in 10.0 mi West 15.0 mph - N/A   Overcast
1:35 PM 51.8 °F - 46.4 °F 82% 29.93 in 10.0 mi West 11.5 mph - N/A   Overcast
1:55 PM 51.8 °F - 46.4 °F 82% 29.94 in 10.0 mi West 11.5 mph - N/A   Overcast
2:15 PM 53.6 °F - 46.4 °F 77% 29.94 in 10.0 mi West 11.5 mph 16.1 mph N/A   Overcast
2:35 PM 53.6 °F - 44.6 °F 72% 29.93 in 10.0 mi West 10.4 mph - N/A   Overcast
2:55 PM 53.6 °F - 46.4 °F 77% 29.93 in 10.0 mi West 9.2 mph - N/A   Overcast
3:15 PM 53.6 °F - 46.4 °F 77% 29.93 in 10.0 mi West 10.4 mph - N/A   Mostly Cloudy
3:35 PM 53.6 °F - 46.4 °F 77% 29.93 in 10.0 mi West 10.4 mph - N/A   Overcast
3:55 PM 53.6 °F - 46.4 °F 77% 29.93 in 10.0 mi West 10.4 mph - N/A   Overcast
4:15 PM 53.6 °F - 46.4 °F 77% 29.94 in 10.0 mi West 12.7 mph - N/A   Mostly Cloudy
4:35 PM 55.4 °F - 48.2 °F 77% 29.94 in 10.0 mi West 10.4 mph - N/A   Overcast
4:55 PM 53.6 °F - 48.2 °F 82% 29.94 in 10.0 mi West 9.2 mph - N/A   Overcast
5:15 PM 55.4 °F - 48.2 °F 77% 29.92 in 10.0 mi West 12.7 mph 17.3 mph N/A   Mostly Cloudy
5:35 PM 55.4 °F - 48.2 °F 77% 29.92 in 10.0 mi West 9.2 mph - N/A   Mostly Cloudy
5:55 PM 57.2 °F - 46.4 °F 67% 29.92 in 10.0 mi WNW 12.7 mph 17.3 mph N/A   Mostly Cloudy
6:15 PM 57.2 °F - 46.4 °F 67% 29.93 in 10.0 mi West 10.4 mph - N/A   Mostly Cloudy
6:35 PM 55.4 °F - 46.4 °F 72% 29.93 in 10.0 mi West 9.2 mph - N/A   Mostly Cloudy
6:55 PM 55.4 °F - 46.4 °F 72% 29.94 in 10.0 mi West 6.9 mph - N/A   Overcast
7:15 PM 55.4 °F - 46.4 °F 72% 29.94 in 10.0 mi West 5.8 mph - N/A   Overcast
7:35 PM 55.4 °F - 48.2 °F 77% 29.94 in 10.0 mi West 4.6 mph - N/A   Overcast
7:55 PM 55.4 °F - 48.2 °F 77% 29.94 in 10.0 mi West 5.8 mph - N/A   Overcast
8:15 PM 53.6 °F - 46.4 °F 77% 29.94 in 10.0 mi West 5.8 mph - N/A   Mostly Cloudy
8:35 PM 53.6 °F - 46.4 °F 77% 29.94 in 10.0 mi WNW 3.5 mph - N/A   Mostly Cloudy
8:55 PM 53.6 °F - 46.4 °F 77% 29.95 in 10.0 mi WNW 4.6 mph - N/A   Overcast
9:15 PM 51.8 °F - 46.4 °F 82% 29.96 in 10.0 mi West 3.5 mph - N/A   Partly Cloudy
9:35 PM 51.8 °F - 46.4 °F 82% 29.96 in 10.0 mi Calm Calm - N/A   Clear
9:55 PM 50.0 °F - 46.4 °F 87% 29.96 in 10.0 mi Calm Calm - N/A   Clear
10:15 PM 48.2 °F - 46.4 °F 93% 29.97 in 10.0 mi West 3.5 mph - N/A   Clear
10:35 PM 48.2 °F - 44.6 °F 87% 29.97 in 10.0 mi West 4.6 mph - N/A   Clear
10:55 PM 48.2 °F - 44.6 °F 87% 29.97 in 10.0 mi West 5.8 mph - N/A   Clear
11:15 PM 48.2 °F - 46.4 °F 93% 29.98 in 10.0 mi WNW 3.5 mph - N/A   Clear
11:35 PM 48.2 °F - 44.6 °F 87% 29.98 in 10.0 mi WNW 4.6 mph - N/A   Clear
11:55 PM 48.2 °F - 44.6 °F 87% 29.98 in 10.0 mi WNW 4.6 mph - N/A   Clear